Regional Weather Roundup
Issued by NWS Sioux Falls, SD

Home | Current Version | Previous Version | Text Only | Print | Product List | Glossary On
Versions: 1 2 3 4 5 6 7 8 9 10 11 12 13 14 15 16 17 18 19 20 21 22 23 24 25 26 27 28 29 30 31 32 33 34 35 36 37 38 39 40 41 42 43 44 45 46 47 48 49 50
000
ASUS43 KFSD 252110
RWRFSD

WEATHER ROUNDUP FOR SE SOUTH DAKOTA/SW MINNESOTA/NW IOWA
NATIONAL WEATHER SERVICE SIOUX FALLS SD
300 PM CST SUN JAN 25 2015

NOTE: "FAIR" INDICATES FEW OR NO CLOUDS BELOW 12,000 FEET WITH NO
SIGNIFICANT WEATHER AND OR OBSTRUCTIONS TO VISIBILITY.


SDZ038>040-050-052>070-252200-
SOUTHEAST SOUTH DAKOTA

CITY           SKY/WX    TMP DP  RH WIND       PRES   REMARKS
CHAMBERLAIN    CLOUDY    38  33  82 NW6       30.02S
HURON          CLOUDY    34  29  82 NW3       30.03S
MADISON        CLOUDY    32  32 100 NW3       30.01S
MITCHELL       CLOUDY    36  31  82 NW6       30.05R
SIOUX FALLS    CLOUDY    34  30  85 N8        30.02R WCI  27
WINNER         CLOUDY    42  30  62 NW8       30.03S
YANKTON        CLOUDY    36  30  80 NW7       30.05R
$$

MNZ071-072-080-081-089-090-097-098-252200-
SOUTHWEST MINNESOTA

CITY           SKY/WX    TMP DP  RH WIND       PRES   REMARKS
FAIRMONT       CLOUDY    28  21  74 N8        30.02R WCI  20
JACKSON        CLOUDY    30  27  86 VRB7      30.01R WCI  23
LUVERNE        CLOUDY    34  32  93 N7        30.03R WCI  28
MARSHALL       CLOUDY    28  23  80 NW10      30.05R WCI  19
MONTEVIDEO     CLOUDY    30  28  93 NW7       30.04R WCI  23
PIPESTONE      CLOUDY    30  30 100 N3        30.01R FOG
REDWOOD FALLS  CLOUDY    30  23  75 N3        30.03R
TRACY          CLOUDY    30  28  93 NW7       30.03R WCI  23
WINDOM         CLOUDY    27  25  93 CALM      30.02R
WORTHINGTON    CLOUDY    28  27  93 N7        30.02R WCI  21
$$

IAZ001>003-012>014-020>022-031-032-NEZ013-014-SDZ071-252200-
NORTHWEST IOWA

CITY           SKY/WX    TMP DP  RH WIND       PRES   REMARKS
CHEROKEE       CLOUDY    33  31  92 NE7       30.03R WCI  27
DENISON        PTSUNNY   36  32  87 N13G20    30.00R
ESTHERVILLE    CLOUDY    28  24  85 N7        30.02R WCI  21
LE MARS        CLOUDY    37  34  87 N8        30.04R
ORANGE CITY    CLOUDY    36  30  80 NW7       30.02R
SHELDON        CLOUDY    32  32 100 N10       30.01R WCI  24
SIOUX CITY     CLOUDY    39  33  79 NW10      30.03R
SPENCER        PTSUNNY   33  26  75 N10       30.02R WCI  25
STORM LAKE     CLOUDY    32  30  93 N12       30.02R WCI  23
$$

ABBREVIATIONS USED IN REMARKS
   TC - TEMPERATURE IN CELSIUS
  WCI - WIND CHILL INDEX
   HX - HEAT INDEX
  VSB - VISIBILITY




USA.gov is the U.S. government's official web portal to all federal, state and local government web resources and services.